CZ-4C R/B, 51285

Orbit data source: Space-Track

CZ-4C R/B, 51285 is space debris in SSO originally from a launch on Tue, 25 Jan 2022 UTC launched from the Jiuquan Satellite Launch Center, China (JSC). Debris objects in space refer to the collection of defunct objects orbiting the Earth. Examples of debris include non-operational satellites, rocket bodies, and fragments generated from explosions, collisions, or faulty payload assembly.

Loading next visibility...
Identifier
51285, 2022-007B
Orbit
SSO
Country
Flag of CNCN / PRC
Related business
Manufacturer
SAST
Mission
Spacecraft
Bus & Motor
CZ-4 STAGE 3, Unknown motor
Mass
~1,000 kg wet, ~1,000 kg dry
Launch date (UTC)
2022-01-25 (4 years ago)
Launch vehicle
Unknown
Launch site
Jiuquan Satellite Launch Center, China (JSC)
Object type
Payload
Rocket body
Debris
Shape & HBR
Cyl, 2.5 m
Radar Cross Section
14.536 m², Large (>1 m²)

Expand to show TLE details & history
Last TLE update: 13 hours ago

TLE from 13 hours ago
0 CZ-4C R/B
1 51285U 22007B   25258.75211436  .00066305  00000-0  60785-3 0  9992
2 51285  97.7000 349.3092 0042383  31.3395 329.0377 15.66359380203282
Epoch: 2025-09-15T18:03Z
TLE epoch observation values (Epoch: 2025-09-15T18:03:02.68Z)
Latitude
-0.00004°
Longitude
83.59578°
Altitude
347.98 km
Speed
7.714 km/s
True Right ascension
23h 17m 14s
True Declination
0° 00' 00"
Sunlit
Object was in full shadow at epoch
Visualization orbit readout
Latitude
Unknown
Longitude
Unknown
Altitude
Unknown
Speed
Unknown
Apparent Right ascension
Unknown
Apparent Declination
Unknown
Sunlit
N/A
Visualization observer readout
Local Sidereal Time
23:31:37
Azimuth
Unknown
Elevation
Unknown
Doppler factor
Unknown
Orbital elements
Apogee altitude
394.834 km
Perigee altitude
337.665 km
Semi-major axis
6,744.386 km
Eccentricity
0.00424
Inclination
97.7°
RAAN
349.3092°
Arg. of periapsis
31.3395°
True anomaly
328.78669°
Mean anomaly
329.0377°
Eccentric anomaly
328.91231°
Mean motion
3.91859 °/min
Orbital period
91.87 mins
BSTAR
0.00060785
Loading maneuver chart data...
Computing Atmospheric mass density...
Loading historical data...
Loading historical data...
Loading historical data...
Loading historical data...
Loading historical data...
Loading historical data...
Loading historical data...
Other satellites on launch #7 in the year 2022 (2022-01-25 UTC)

Documentation

Showing up to 5 results
|